Regional Weather Roundup
Issued by NWS

Home | Current Version | Previous Version | Text Only | Print | Product List | Glossary On
Versions: 1 2 3 4 5 6 7 8 9 10 11 12 13 14 15 16 17 18 19 20 21 22 23 24 25 26 27 28 29 30 31 32 33 34 35 36 37 38 39 40 41 42 43 44 45 46 47 48 49 50
000
ASUS46 KSEW 281110
RWRWA

WASHINGTON REGIONAL WEATHER ROUNDUP
NATIONAL WEATHER SERVICE SEATTLE WA
400 AM PDT THU MAY 28 2015

NOTE:"FAIR" INDICATES FEW OR NO CLOUDS BELOW 12,000 FEET WITH NO
SIGNIFICANT WEATHER AND/OR OBSTRUCTIONS TO VISIBILITY.

WAZ505-507>509-281200-
SEATTLE, TACOMA, EVERETT, AND VICINITY

CITY           SKY/WX    TMP DP  RH WIND       PRES   REMARKS
EVERETT        CLEAR     55  52  89 NE6       30.06R
BOEING FIELD   CLEAR     60  51  72 CALM      30.05R
RENTON         CLEAR     57  54  89 SE3       30.04S
SEATAC AIRPORT CLEAR     55  51  86 CALM      30.06R
JBLM-MCCHORD   CLEAR     52  52  99 S2        30.05S
PUYALLUP       FAIR      52  52 100 CALM      30.06S
BREMERTON      CLEAR     48  48 100 CALM      30.08R
JBLM-FT LEWIS  CLEAR     52  52  99 S3        30.05S
TACOMA NARROWS CLEAR     53  50  89 CALM      30.06S
$$

WAZ001-503-506-510-514-515-281200-
NORTH INTERIOR

CITY           SKY/WX    TMP DP  RH WIND       PRES   REMARKS
BELLINGHAM     CLEAR     56  53  90 S3        30.05R
FRIDAY HARBOR  FOG       50  49  96 E5        30.06S VSB 1/2
EASTSOUND      CLEAR     54  50  87 S6        30.03S
PORT ANGELES   FOG       50  48  93 NW5       30.06F VSB 1/4
PORT TOWNSEND  FOG       50  50 100 CALM      30.06S VSB 1/4
NAS WHIDBEY    FOG       52  50  93 W7        30.10S VSB 1/2
ARLINGTON      CLEAR     52  46  82 CALM      30.06S
BURLINGTON     PTCLDY    50  50 100 CALM      30.06S
$$

WAZ020-022-039-040-504-511-512-281200-
SOUTHWEST INTERIOR

CITY           SKY/WX    TMP DP  RH WIND       PRES   REMARKS
SHELTON        CLOUDY    50  49  96 SW7       30.04S FOG
OLYMPIA        CLEAR     50  48  93 S3        30.06S
CHEHALIS       CLOUDY    52  52 100 CALM      30.06S FOG
KELSO          CLOUDY    54  48  82 N6        30.10S
VANCOUVER      CLEAR     57  51  80 CALM      30.04R
SCAPPOOSE, OR  CLEAR     53  50  89 CALM      30.03S
PORTLAND, OR   CLEAR     57  52  83 NW7       30.04S
$$

WAZ021-516-517-281200-
WASHINGTON COAST

CITY           SKY/WX    TMP DP  RH WIND       PRES   REMARKS
FORKS          FOG       50  50 100 CALM      30.07S VSB 1/2
HOQUIAM        CLOUDY    51  51 100 NW3       30.07S FOG
ASTORIA, OR    CLOUDY    53  50  89 W5        30.07S
$$

WAZ019-023-024-040-518-519-281200-
CASCADE MOUNTAINS AND COLUMBIA GORGE

CITY           SKY/WX    TMP DP  RH WIND       PRES   REMARKS
TROUTDALE, OR  CLEAR     55  51  86 CALM      30.02S
THE DALLES, OR CLEAR     63  51  65 CALM      29.99R
$$

WAZ026-027-041>044-520-521-281200-
EAST SLOPES

CITY           SKY/WX    TMP DP  RH WIND       PRES   REMARKS
OMAK           CLEAR     53  46  77 NW3       29.99R
WENATCHEE      CLEAR     66  50  56 NW8       29.99R
ELLENSBURG     CLEAR     53  47  79 E3        30.02R
YAKIMA         CLEAR     56  49  77 SW6       30.00S
$$

WAZ028-034-035-281200-
COLUMBIA BASIN

CITY           SKY/WX    TMP DP  RH WIND       PRES   REMARKS
EPHRATA        CLEAR     58  52  80 N5        29.97S
MOSES LAKE     CLEAR     55  50  83 SE5       29.98S
PASCO          CLEAR     52  49  89 CALM      29.98S
HERMISTON, OR  CLEAR     54  48  80 SE5       29.99R
$$

WAZ036>038-281200-
NORTHEAST WASHINGTON

CITY           SKY/WX    TMP DP  RH WIND       PRES   REMARKS
SPOKANE GEIGER PTCLDY    54  49  83 SE6       30.03R
SPOKANE FELTS  MOCLDY    57  50  77 NE5       30.04R
FAIRCHILD AFB  MOCLDY    52  49  91 S6        30.03R
COEURDALENE,ID MOCLDY    55  48  76 S5        30.04S
DEER PARK      CLOUDY    51  49  92 CALM      30.03S
$$

WAZ029>033-281200-
SOUTHEAST WASHINGTON

CITY           SKY/WX    TMP DP  RH WIND       PRES   REMARKS
PULLMAN        CLEAR     52  48  86 E6        30.07R
LEWISTON, ID   CLEAR     55  50  83 E8        30.04R
WALLA WALLA    CLEAR     59  47  64 E9        30.00S
PENDLETON, OR  CLEAR     50  45  83 CALM      30.01S
$$


USA.gov is the U.S. government's official web portal to all federal, state and local government web resources and services.